CAPE
229 363 594 549 443 590 1279 1804 2332 2776 2913 2839 2945 3059 3058 3163 3073 2893 2905 2922 2828 2624 2520 2233 2105 1810 1736 1746 1768 1684 1604 1725 1380 1256 1242 1337 1237 579 880 782 761 1150 1708
294 491 884 777 753 1037 1132 1808 2260 2551 2767 2826 2872 2929 2976 3033 2927 2800 2764 2698 2654 2441 1992 1822 1773 1732 1669 1610 1507 1498 1510 1369 1476 1277 1260 1181 907 600 675 1164 1980 1269 1334
384 494 563 1267 1170 1193 1708 1867 2143 2388 2582 2638 2732 2894 2879 2865 2759 2730 2638 2538 2277 2144 1760 1728 1756 1755 1606 1565 1535 1353 1217 1037 957 1081 1105 1245 446 999 900 1297 1503 1547 1240
220 192 269 1726 1456 1519 2047 2050 1917 1985 1989 2430 2556 2736 2816 2688 2579 2226 1942 1925 1840 1735 1679 1775 1809 1775 1731 1601 1565 1491 1297 1145 1185 1399 1351 1079 151 1283 914 1471 1476 1570 1542
232 654 1112 1495 1914 1794 2016 2128 2122 2108 2080 2341 2380 2484 2593 2310 1790 1829 1849 1745 1697 1682 1718 1751 1823 1825 1790 1730 1499 1529 1462 1351 1547 1608 1268 731 179 1196 1281 1400 1312 1239 1283
697 451 1383 1712 1761 1929 2263 2189 2316 2203 2022 2167 2360 2337 1944 1752 1665 1865 1716 1604 1609 1642 1695 1877 1874 1711 1792 1651 1384 1249 1432 1426 1663 1862 1349 870 674 1289 1533 1033 1514 1150 974
677 737 1168 2128 2182 2120 2103 2261 2182 1778 1792 2141 2278 1890 1891 1771 1800 1800 1446 1417 1557 1758 1829 2131 1810 1615 1553 1595 1271 1281 1396 1508 1811 1873 1187 385 1185 1629 1062 1224 1319 1094 1413
799 803 1104 2087 2154 2040 2401 2133 1973 1606 1432 1742 1889 1870 1944 1872 1767 1540 1354 1424 1616 1795 1963 1935 1688 1524 1540 1239 1154 1180 1263 1364 1407 1391 1224 467 1121 1433 254 616 1075 1208 1051
904 1179 1604 1487 1987 2067 2284 1920 1695 1635 1721 1798 1739 1780 1892 1852 1731 1502 1322 1393 1541 1729 1725 1764 1566 1365 1444 1226 1243 1385 1434 1512 1644 1498 981 996 1380 1141 1036 583 962 1162 1202
899 1305 1824 1952 2034 2036 1631 1762 1646 1639 1584 1547 1548 1630 1679 1784 1712 1400 1663 1922 1590 1560 1596 1589 1605 1320 1396 1436 1572 1772 1663 813 1540 374 1307 968 2072 1500 820 1334 1169 1341 1400
979 1124 1207 1498 2248 2203 1700 1269 1580 1496 1460 1420 1541 1824 2217 1459 1667 1971 2273 1699 1656 1644 1788 1626 1738 1894 1913 2128 2747 2363 1780 639 1130 409 1336 1452 2008 1824 1764 875 1466 1398 1504
1042 794 1239 944 1092 1964 1032 1936 1846 1337 1251 1450 1677 2535 1983 1260 1436 2155 1719 1793 1483 1533 1710 1836 2162 1573 2288 2071 2101 2650 1318 1339 798 828 1286 2031 2299 1838 1926 1176 1019 1365 1141
1322 1076 1211 1504 1597 1135 1879 1715 1645 1624 1592 1790 3051 2053 2960 2299 2085 1535 1814 3168 1744 2544 2120 1981 1005 168 1371 2259 2241 1879 1193 997 769 887 1356 1907 2573 2143 1687 1792 1058 1035 1038
1171 1311 1029 2104 2543 1864 1768 1484 1722 1743 1793 1555 2116 2825 3022 3101 2620 2371 1759 2847 2590 2017 2456 2232 1095 1058 2174 2339 2153 1903 1385 860 691 1711 1594 2559 2679 2811 2172 2365 1742 1364 1281
1267 1315 1851 2315 3037 3477 3041 2399 1823 2056 1115 1801 2127 2426 2289 2666 1902 2508 2923 2430 3002 2715 1986 2004 2459 2086 1331 2042 2102 2146 1302 1086 786 1414 1732 2273 2405 2891 2776 2250 2259 1794 1477
1242 1134 1701 1972 2755 3001 3257 3379 3893 2748 2620 988 1728 2328 2983 2756 3393 2424 2572 2570 3025 2116 2243 2850 3339 3098 2994 2722 2040 1882 1425 1147 951 700 1035 2087 2384 2816 3057 3062 2371 2259 1967
1178 1283 1613 1789 2474 2840 3266 3223 3199 2794 1537 2314 1774 2585 3120 3437 3063 3514 3222 3024 2681 2762 2331 3083 2935 2982 2602 2203 2199 1678 199 385 395 333 361 523 2369 2732 2754 2952 2599 2427 2339
1169 1881 2066 957 1964 2665 3047 3424 2318 1791 2032 2126 2187 1687 2070 3290 2822 3047 2937 2539 1926 1992 2396 1934 2358 2654 1701 755 252 100 338 307 396 662 733 531 1220 1818 2416 2702 2976 2689 2145
1447 2099 1745 2138 1892 2632 3028 2947 2931 2612 2323 3128 1823 1963 2413 3254 3074 3202 2741 2160 2652 2356 2538 1947 2201 1396 1120 555 34 223 790 696 622 150 252 363 561 521 1809 2535 2251 2687 1889
1235 1971 2236 2085 3116 2960 2665 3160 3328 2431 3304 1966 2904 2785 2330 2932 3203 2131 2575 2375 2391 2874 2566 2229 1775 1405 705 280 58 32 371 699 992 521 130 347 290 709 1817 1681 1949 2010 1703
1257 2043 2284 2897 3507 3561 3371 2591 2587 2500 2615 2446 2727 1778 2503 3229 3192 2731 2497 2627 3018 2552 2153 1773 1296 435 748 685 528 374 589 340 604 227 100 125 428 429 1235 1339 1288 1734 1561
1395 1811 2629 2715 4054 3248 3049 3044 2543 2199 2330 1953 2124 3218 2769 3074 3204 2876 2552 2722 2688 1827 1684 1146 615 520 497 1072 284 454 101 167 203 60 332 61 40 249 764 989 1183 1203 1470
1400 2172 2571 2838 3574 2972 3566 2908 2945 3158 3743 2610 2801 2389 2837 3101 3153 2833 3002 2660 2612 1769 1528 1248 896 718 493 1047 287 564 485 324 349 629 654 11 35 42 341 164 13 35 345
1407 2152 2846 3145 3180 3813 2900 3216 3099 2358 2466 2182 2655 2416 2904 2696 2720 3001 3285 2407 2288 1365 1587 1174 1041 600 824 485 1253 351 244 204 424 205 78 147 22 0 0 21 0 0 0
1432 1880 2897 3383 3678 3518 3692 3424 3492 3413 1752 2706 2461 3098 3131 2817 2537 2256 2203 2599 1660 609 1856 1075 963 742 1124 762 603 775 562 160 520 62 235 53 68 32 2 0 0 0 0
1254 1708 2191 3622 3758 3698 3844 3633 3765 3317 2660 2766 3268 2385 2050 1925 2239 2331 2462 1908 1750 1050 1687 1184 851 670 877 1031 862 848 154 500 146 442 175 112 87 56 46 28 4 0 0
CIN
-2 -1 -1 0 -2 -2 0 0 0 0 0 0 0 0 0 0 0 0 0 0 0 0 0 0 0 0 0 0 0 0 0 -9 -6 -5 -2 -3 -8 -24 -7 -9 -2 -3 0
0 0 0 0 -1 -1 -1 0 0 0 0 0 0 0 0 0 0 0 0 0 0 0 0 0 0 0 0 0 0 0 -3 -25 0 0 0 -1 -12 -24 -10 -6 -1 -5 0
0 -14 -3 -1 -1 -1 0 0 0 0 0 0 0 0 0 0 0 0 0 0 0 0 0 0 0 0 0 0 0 -4 -16 -41 -33 -8 -5 -6 -45 -20 -7 -6 -1 0 0
0 -3 -9 0 -3 0 0 0 0 0 0 0 0 0 0 0 0 0 0 0 0 0 0 0 0 0 0 0 0 -8 -30 -42 -43 -19 -14 -8 -34 -11 -5 0 0 0 0
-21 -4 -5 -4 -1 0 0 0 0 0 0 0 0 0 0 0 -2 0 0 -3 -2 0 0 0 0 0 0 0 -1 -4 -16 -43 -29 -28 -10 -31 -78 -9 -4 -1 -1 0 0
-1 -20 -3 0 0 0 0 0 0 0 0 0 0 0 -1 -7 -8 0 -1 -3 -1 -4 -1 0 0 0 0 -7 -21 -27 -19 -34 -27 -20 -20 -54 -51 -7 -1 -1 0 -4 -4
-2 -23 -14 0 0 0 0 0 0 0 0 0 0 0 -1 -6 -2 -4 -13 -15 -8 -2 0 0 -2 -16 -21 -21 -39 -41 -29 -26 -24 -26 -16 -83 -42 -1 -5 0 0 -1 0
-1 -8 -10 0 0 0 0 0 0 -1 -8 -2 0 -2 -8 -13 -14 -18 -28 -16 -8 -3 -3 -14 -27 -34 -35 -58 -58 -53 -42 -37 -15 -62 -30 -16 -49 -4 -68 -19 0 0 0
-5 -1 0 0 0 0 0 0 0 -3 -5 -1 -7 -15 -11 -10 -20 -32 -30 -31 -28 -20 -24 -23 -37 -50 -45 -67 -64 -61 -42 -34 -28 -36 -71 -83 -34 -19 -5 -23 0 0 0
-10 -5 -2 -1 0 -1 0 -1 -5 -6 -8 -15 -28 -28 -15 -15 -13 -21 -30 -27 -40 -38 -37 -44 -42 -52 -53 -60 -62 -50 -39 -106 -34 -4 -52 -103 -15 -14 -26 0 0 0 0
-2 -1 -2 -1 -1 -2 -1 -20 -10 -14 -21 -27 -34 -24 -17 -60 -79 -2 -18 -43 -44 -46 -32 -32 -38 -36 -43 -49 -55 -47 -10 -27 -81 -141 -31 -89 -34 -9 0 -16 0 0 0
-2 -5 -2 -3 -1 -2 -4 -16 -6 -19 -30 -33 -21 -12 -43 -50 -82 -11 -25 -34 -37 -42 -44 -47 -17 -70 -18 -21 -31 -28 -144 -118 -12 -37 -89 -52 -33 -28 0 -6 -12 -1 0
-1 -6 -10 -11 -8 -12 -27 -36 -27 -22 -23 -24 -14 -66 -15 -25 -21 -35 -74 -14 -89 -25 -35 -61 -123 -252 -24 -9 -29 -19 -27 -45 -191 -152 -122 -45 -16 -27 -11 0 -13 -8 -4
-9 -2 -11 -17 -12 -48 -51 -32 -12 -7 -18 -26 -12 -6 -10 -9 -18 -15 -73 -35 -49 -68 -36 -32 -6 -48 -24 -9 -7 -32 -34 -59 -67 -57 -89 -39 -29 -16 -13 -1 0 -1 0
-14 -8 -13 -8 -9 -5 -7 -9 -25 -31 -33 -8 -44 -33 -24 -12 -27 -14 -30 -30 -21 -26 -33 -33 -22 -51 -63 -31 -25 -16 -31 -27 -27 -32 -79 -44 -52 -32 -10 -3 0 0 0
-5 -6 -7 -9 -12 -5 -4 -3 -10 -16 -17 -49 -32 -47 -21 -9 -17 -39 -18 -24 -12 -51 -16 -16 -11 -14 -19 -7 -26 -21 -32 -25 -14 -14 -39 -60 -59 -49 -22 -3 -4 0 0
-10 -8 -7 -7 -7 -8 -4 -2 -4 -7 -6 -21 -40 -44 -20 -15 -8 -8 -8 -5 -11 -18 -11 -9 -15 -18 -27 -10 -13 -10 -89 -46 -50 -63 -47 -45 -53 -51 -41 -16 -14 -13 -4
-22 -6 -4 -32 -13 -6 -4 -3 -4 -13 -51 -42 -52 -59 -24 -32 -12 -10 -10 -17 -55 -50 -33 -61 -17 -22 -57 -29 -97 -115 -51 -45 -34 -32 -30 -47 -34 -30 -42 -25 -8 -7 -11
-20 -6 -8 -4 -6 -13 -9 -3 -5 -13 -50 -24 -46 -49 -49 -19 -23 -5 -10 -45 -12 -27 -20 -21 -17 -44 -36 -37 -63 -105 -33 -35 -20 -98 -87 -65 -29 -62 -49 -43 -38 -21 -19
-33 -15 -13 -5 -7 -29 -17 -12 -11 -22 -6 -46 -27 -40 -39 -9 -5 -44 -18 -17 -18 -5 -6 -8 -10 -16 -27 -75 -48 -22 -36 -27 -32 -46 -104 -63 -47 -40 -26 -51 -44 -27 -24
-24 -12 -21 -8 -16 -9 -4 -3 -3 -4 -12 -21 -23 -98 -33 -7 -7 -2 -21 -4 -12 -16 -14 -14 -12 -45 -19 -44 -43 -76 -62 -67 -40 -111 -122 -119 -36 -19 -47 -64 -68 -42 -30
-28 -40 -22 -16 -10 -12 -6 -9 -9 -34 -17 -47 -32 -20 -31 -22 -17 -19 -22 -11 -23 -34 -8 -25 -23 -23 -45 -39 -36 -51 -120 -115 -113 -160 -92 -136 -148 -78 -28 -31 -40 -16 -16
-35 -30 -33 -22 -8 -14 -5 -16 -17 -9 -8 -16 -47 -35 -27 -11 -6 -25 -4 -6 -10 -23 -24 -13 -8 -4 -26 -23 -35 -22 -34 -44 -57 -45 -41 -154 -179 -144 -73 -110 -105 -85 -35
-25 -15 -25 -23 -14 -3 -21 -9 -13 -7 -6 -13 -18 -39 -28 -20 -9 -11 -6 -7 -13 -28 -29 -26 -10 -19 -18 -30 -26 -22 -25 -36 -36 -47 -155 -142 -120 0 0 -144 0 0 0
-14 -17 -15 -20 -9 -6 -4 -7 -8 -6 -19 -18 -20 -36 -27 -13 -2 -9 -7 -10 -16 -79 -19 -26 -14 -19 -16 -28 -37 -22 -22 -46 -33 -49 -23 -212 -231 -84 -47 0 0 0 0
-51 -35 -27 -14 -9 -8 -6 -10 -9 -12 -23 -13 -11 -38 -45 -46 -16 -5 -6 -36 -15 -63 -14 -14 -12 -10 -7 -16 -31 -28 -34 -17 -37 -21 -35 -37 -98 -118 -76 -100 -44 0 0
Wind_Speed
17 8 3 3 4 1 3 6 8 9 7 8 7 7 10 9 9 7 5 3 3 4 4 3 2 3 2 2 5 7 9 13 12 11 8 7 4 2 4 8 6 10 10
9 6 2 8 2 3 4 6 6 5 4 3 5 7 8 8 8 7 6 4 4 4 4 5 5 5 3 2 3 6 10 14 12 10 11 10 5 3 2 8 14 10 11
8 4 4 1 2 2 2 5 3 1 1 3 3 6 6 8 6 5 4 3 3 4 4 6 8 6 5 3 2 4 7 14 12 12 12 13 5 7 5 6 10 11 11
10 6 4 3 2 0 1 3 1 2 1 1 4 6 6 5 5 4 3 2 2 3 5 7 8 7 6 6 5 2 2 12 14 11 16 14 5 8 9 9 7 9 10
4 3 5 5 3 2 2 3 4 5 4 4 5 6 6 6 6 5 3 1 1 2 4 7 8 8 7 5 4 4 0 7 5 8 4 6 5 9 9 10 10 11 9
8 8 8 8 7 7 7 7 6 4 3 4 6 8 8 7 6 5 2 2 1 2 3 5 7 8 8 6 4 3 1 3 3 2 4 9 4 11 12 7 11 14 14
9 10 9 10 9 8 8 7 5 5 4 5 8 8 6 6 5 4 3 2 3 3 3 4 6 8 9 7 5 3 2 2 3 5 7 13 11 13 13 12 10 12 12
12 12 11 9 8 8 8 6 7 6 5 5 5 5 3 4 5 6 4 2 3 3 4 5 4 4 4 4 3 2 3 1 6 8 6 10 15 15 15 15 12 11 12
14 13 9 8 8 7 7 7 6 5 4 6 5 7 6 6 8 8 5 2 4 5 4 3 3 3 2 1 3 6 6 6 9 11 16 12 21 20 17 14 12 13 12
12 12 8 8 8 8 8 7 6 6 8 10 12 10 8 12 16 15 9 8 6 5 4 4 4 5 5 5 7 7 4 6 9 12 7 11 21 22 19 13 14 13 15
9 8 8 9 7 8 7 8 8 9 10 12 14 12 16 4 20 23 12 14 12 9 9 9 11 11 12 15 11 3 13 7 15 13 17 26 18 19 18 14 13 13 13
7 7 9 6 10 9 8 7 11 11 12 14 15 11 15 12 20 19 15 15 14 10 7 19 15 17 20 18 10 10 24 20 14 8 13 25 22 21 18 13 12 16 17
7 6 10 8 9 11 4 9 11 11 12 13 15 12 16 11 12 10 11 12 10 14 17 19 5 11 21 17 16 14 14 12 22 18 17 21 21 21 20 18 16 15 18
5 9 10 6 8 3 6 9 12 11 11 10 10 8 10 12 13 10 9 10 12 8 11 9 8 17 16 14 6 10 8 4 9 11 14 25 26 22 19 19 19 19 19
8 13 7 6 6 8 10 8 6 6 8 7 5 9 8 11 11 11 7 8 7 7 6 11 8 8 9 11 10 9 8 7 5 12 16 25 25 25 22 19 19 19 19
9 8 2 4 5 8 8 8 7 6 2 7 6 5 6 7 8 5 4 7 8 5 6 3 4 7 10 9 11 13 13 12 9 9 12 17 22 25 26 24 22 20 18
5 5 4 6 7 8 8 5 7 8 5 4 8 3 7 4 2 4 4 5 4 5 3 7 7 10 8 9 12 14 11 9 9 9 8 8 16 23 25 24 21 20 20
4 2 3 8 10 10 7 5 7 11 6 6 7 5 7 5 4 3 6 8 2 5 8 10 9 7 9 10 8 11 12 11 13 16 14 11 12 17 20 24 21 18 20
3 2 5 5 7 12 9 7 8 7 3 6 7 4 6 7 10 7 7 7 7 10 10 9 8 12 11 11 nan 13 15 13 10 16 17 12 8 11 17 21 22 21 20
6 6 7 4 2 12 10 8 2 1 2 3 5 4 5 5 8 11 6 10 11 10 13 15 14 13 12 13 nan nan 13 12 10 12 13 12 10 14 18 18 14 14 14
10 9 9 7 6 8 8 7 4 0 3 4 3 12 12 9 9 8 7 10 13 15 16 17 14 12 12 17 14 13 17 19 13 12 14 13 10 14 16 16 14 15 15
11 13 13 10 10 8 7 6 6 4 6 8 7 11 13 15 17 18 17 17 17 19 19 20 16 12 12 20 16 14 15 14 18 nan 17 nan nan 10 17 17 17 15 18
16 16 15 14 10 10 7 8 3 3 4 9 15 14 17 19 19 21 20 18 19 14 22 22 21 19 15 18 21 18 16 17 16 17 22 nan nan nan 14 20 nan nan 14
12 14 17 16 14 12 9 8 6 9 7 13 13 15 24 24 21 22 19 18 19 15 21 22 23 22 20 18 20 22 21 20 20 19 nan 22 nan nan nan nan nan nan nan
16 19 18 18 15 14 11 8 7 9 14 12 19 26 26 23 17 20 20 21 21 18 23 25 27 25 22 21 19 22 23 20 23 nan 20 nan nan nan nan nan nan nan nan
21 22 22 23 18 15 14 12 9 15 12 18 23 27 21 17 15 16 20 22 23 23 28 29 27 26 28 26 25 22 20 22 23 22 22 21 nan nan nan nan nan nan nan
Wind_Direction
71 81 227 186 328 359 244 253 247 234 227 235 241 248 254 250 259 273 282 275 328 310 256 234 240 247 209 76 61 61 66 57 44 42 38 31 23 103 151 147 124 245 248
40 90 334 315 267 302 249 244 235 223 206 241 249 253 263 269 274 282 286 321 326 299 239 210 211 217 212 163 92 71 64 61 54 43 39 24 6 334 244 198 256 260 257
351 16 336 49 278 283 229 237 208 173 342 263 264 266 280 275 282 291 293 313 316 273 230 209 197 197 189 185 128 90 79 81 61 56 43 33 358 304 290 267 280 273 264
13 11 19 58 22 224 232 236 62 348 303 305 276 267 274 288 300 302 307 356 277 251 215 204 201 192 198 186 179 155 101 89 82 79 67 49 300 310 321 281 283 289 276
48 325 22 17 7 340 331 349 10 357 323 266 268 287 297 308 316 313 331 312 254 259 214 199 201 201 212 210 213 217 333 116 110 82 91 31 23 337 333 328 289 293 295
351 340 360 353 349 346 349 4 0 335 296 275 286 297 307 320 320 341 360 51 109 201 222 203 208 218 225 218 230 246 225 110 128 308 271 294 325 342 341 350 306 302 292
338 346 352 353 350 347 358 9 358 352 328 304 299 303 306 300 327 347 27 60 110 135 148 177 198 225 242 239 231 258 286 64 64 61 287 290 311 315 322 325 314 311 306
348 335 343 347 346 354 351 5 12 3 356 326 322 322 322 349 4 8 22 54 135 153 168 176 174 210 242 253 253 229 274 4 343 269 292 287 308 313 310 322 326 317 310
328 321 333 334 348 359 3 22 29 29 26 39 68 65 74 83 51 32 25 68 143 157 160 168 192 209 238 4 31 58 49 37 30 334 314 313 303 318 311 310 324 331 319
308 325 340 344 9 29 42 33 47 58 56 65 76 82 100 90 92 80 37 40 60 71 111 113 107 105 106 60 35 48 126 64 341 174 310 312 322 303 308 301 313 323 325
342 328 348 352 26 42 47 57 61 59 63 72 76 70 72 51 81 64 42 38 51 58 75 99 94 90 91 80 69 71 153 87 250 4 350 325 331 319 308 306 313 319 318
324 356 17 17 50 45 39 31 61 60 71 74 73 54 60 69 65 58 60 55 66 67 85 82 88 110 97 86 63 9 46 69 314 71 346 342 338 331 320 310 314 315 319
3 48 34 45 44 51 15 49 62 63 65 72 68 69 85 100 86 82 72 76 75 49 50 57 77 75 68 70 57 44 41 53 11 13 352 356 352 336 333 327 322 318 327
58 66 50 55 66 20 53 52 54 53 63 69 68 74 92 91 87 95 69 63 69 43 54 53 35 63 61 74 84 94 111 23 33 359 1 8 4 349 341 342 337 332 324
63 77 0 17 64 77 80 70 69 77 76 71 47 50 76 86 100 79 103 103 84 79 45 25 33 25 54 55 43 39 46 27 14 348 356 4 1 355 358 357 352 350 352
63 85 344 21 51 77 85 106 120 96 122 127 98 56 68 97 128 113 85 75 61 52 18 5 16 43 42 34 31 27 34 29 352 12 348 359 1 355 359 3 3 357 354
82 68 24 26 8 41 70 61 91 105 68 55 115 42 17 29 44 99 97 74 48 349 348 333 19 29 27 20 25 3 8 18 354 348 355 6 356 3 357 2 10 7 3
25 50 54 51 2 9 32 45 50 63 49 112 90 50 66 333 29 33 59 37 332 338 324 327 357 0 355 332 335 356 349 352 8 355 353 4 351 350 354 356 356 4 11
6 358 15 45 11 342 5 21 33 72 49 78 94 42 29 12 357 8 33 342 329 327 331 326 326 332 316 317 nan 339 331 340 346 332 338 343 349 344 333 349 352 2 3
345 341 341 4 25 328 344 355 332 81 171 60 33 5 323 350 330 343 1 318 324 320 317 326 330 306 325 327 nan nan 307 306 302 319 331 328 328 295 310 328 329 327 347
332 326 332 330 318 302 309 329 317 17 353 39 50 311 330 320 321 315 321 313 322 321 319 316 301 309 332 311 316 329 328 319 319 308 295 292 281 294 297 290 292 298 304
331 329 322 322 304 301 298 297 316 351 343 341 328 303 309 317 322 320 326 318 321 298 301 291 296 302 313 308 311 306 315 314 310 nan 301 nan nan 286 286 282 277 279 310
335 323 318 320 312 314 313 305 288 242 276 282 299 305 318 315 319 318 316 305 293 296 306 309 311 308 303 305 304 307 297 303 302 303 312 nan nan nan 285 284 nan nan 288
320 317 317 315 316 311 334 299 319 304 291 295 299 309 307 313 322 317 322 317 301 296 309 313 312 302 300 294 309 299 299 303 295 294 nan 308 nan nan nan nan nan nan nan
313 313 308 312 314 314 315 310 289 295 303 303 302 293 300 307 314 316 314 309 307 315 309 309 307 303 297 294 289 293 290 294 298 nan 298 nan nan nan nan nan nan nan nan
310 313 314 310 307 307 307 314 296 298 305 298 302 305 304 308 316 321 326 321 328 333 323 317 308 306 301 295 288 282 285 286 290 291 294 291 nan nan nan nan nan nan nan